Weather History for Zagreb Pleso, Croatia

Change the Weather History Date:

Friday, November 2, 2012

  Actual Average Record
Temperature  
Mean Temperature 44 °F -  
Max Temperature 53 °F - - ()
Min Temperature 36 °F - - ()
Degree Days  
Heating Degree Days 20    
Moisture  
Dew Point 42 °F    
Average Humidity 93    
Maximum Humidity 100    
Minimum Humidity 79    
Precipitation  
Precipitation 0.08 in - - ()
Sea Level Pressure  
Sea Level Pressure 29.76 in    
Wind  
Wind Speed 3 mph ()    
Max Wind Speed 20 mph    
Max Gust Speed -    
Visibility 3.1 miles    
Events Fog , Rain    
T = Trace of Precipitation, MM = Missing Value Source: Averaged Metar Reports

Daily Weather History Graph

Daily Weather History Graph

Search for Another Location

Airport:

Trip Planner

Search our weather history database for the weather conditions in past years. The results will help you decide how hot, cold, wet, or windy it might be!

Date:

Astronomy

Nov. 02, 2012 Rise Set
Actual Time 6:37 AM CET 4:40 PM CET
Civil Twilight 6:06 AM CET 5:11 PM CET
Nautical Twilight 5:31 AM CET 5:46 PM CET
Astronomical Twilight 4:56 AM CET 6:21 PM CET
Moon 7:06 PM CET (11/2) 9:51 AM CET (11/2)
Length of Visible Light 11h 05m
Length of Day
10h 03m
Waning Gibbous, 89% of the Moon is Illuminated
Nov 2
Waning Gibbous
Nov 7
Last Quarter
Nov 13
New
Nov 20
First Quarter
Nov 28
Full

Hourly Weather History & Observations

Time (CET) Temp. Windchill Dew Point Humidity Pressure Visibility Wind Dir Wind Speed Gust Speed Precip Events Conditions
12:00 AM 41.0 °F - 41.0 °F 100% 29.59 in 3.1 mi Variable 1.2 mph - N/A   Mist
12:30 AM 41.0 °F - 39.2 °F 93% 29.59 in 1.9 mi Calm Calm - N/A   Mist
1:00 AM 40 °F - 39 °F 94% 29.63 in 1 mi Calm Calm - - Fog Patches of Fog
1:00 AM 39.2 °F - 39.2 °F 100% 29.59 in 0.9 mi Calm Calm - N/A   Mist
1:30 AM 39.2 °F - 37.4 °F 93% 29.62 in 0.1 mi NW 2.3 mph - N/A Fog Fog
2:00 AM 39.2 °F 34.2 °F 37.4 °F 93% 29.62 in 0.2 mi ESE 6.9 mph - N/A Fog Fog
2:30 AM 39.2 °F - 39.2 °F 100% 29.62 in 0.1 mi Variable 2.3 mph - N/A Fog Fog
3:00 AM 37.4 °F 34.9 °F 37.4 °F 100% 29.62 in 0.2 mi WNW 3.5 mph - N/A Fog Fog
3:30 AM 37.4 °F 33.8 °F 37.4 °F 100% 29.62 in 0.1 mi North 4.6 mph - N/A Fog Fog
4:00 AM 39 °F - 38 °F 94% 29.66 in 0 mi East 2.2 mph - - Fog Heavy Fog
4:00 AM 39.2 °F - 37.4 °F 93% 29.62 in 0.2 mi Variable 2.3 mph - N/A Fog Fog
4:30 AM 39.2 °F - 37.4 °F 93% 29.62 in 0.2 mi Variable 1.2 mph - N/A Fog Fog
5:00 AM 39.2 °F - 37.4 °F 93% 29.62 in 0.4 mi Variable 2.3 mph - N/A Fog Fog
5:30 AM 35.6 °F - 35.6 °F 100% 29.62 in 0.2 mi Variable 2.3 mph - N/A Fog Fog
6:00 AM 37.4 °F - 35.6 °F 93% 29.65 in 0.3 mi Variable 1.2 mph - N/A Fog Fog
6:30 AM 37.4 °F - 35.6 °F 93% 29.65 in 0.2 mi Variable 2.3 mph - N/A Fog Fog
7:00 AM 37 °F - 36 °F 93% 29.69 in 0 mi Calm Calm - - Fog Heavy Fog
7:00 AM 37.4 °F - 35.6 °F 93% 29.65 in 0.4 mi Variable 1.2 mph - N/A Fog Fog
7:30 AM 39.2 °F - 37.4 °F 93% 29.68 in 1.2 mi Variable 2.3 mph - N/A   Partly Cloudy
8:00 AM 39.2 °F - 39.2 °F 100% 29.71 in 2.5 mi Variable 1.2 mph - N/A Rain Rain Showers
8:30 AM 41.0 °F - 41.0 °F 100% 29.71 in 3.7 mi Calm Calm - N/A   Partly Cloudy
9:00 AM 42.8 °F - 41.0 °F 93% 29.71 in 4.3 mi Variable 1.2 mph - N/A   Partly Cloudy
9:30 AM 44.6 °F - 44.6 °F 100% 29.71 in 3.7 mi Variable 1.2 mph - N/A Rain Light Rain
10:00 AM 46 °F - 45 °F 94% 29.75 in 3 mi NE 2.2 mph - - Rain Light Rain
10:00 AM 46.4 °F - 44.6 °F 93% 29.74 in 3.1 mi Variable 2.3 mph - N/A   Partly Cloudy
10:30 AM 46.4 °F - 44.6 °F 93% 29.74 in 2.5 mi Variable 2.3 mph - N/A Rain Light Rain Showers
11:00 AM 46.4 °F - 44.6 °F 93% 29.74 in 2.5 mi Variable 1.2 mph - N/A Rain Light Rain Showers
11:30 AM 48.2 °F - 46.4 °F 93% 29.74 in 3.1 mi Variable 1.2 mph - N/A   Partly Cloudy
12:00 PM 50.0 °F - 48.2 °F 94% 29.71 in 3.7 mi Variable 2.3 mph - N/A   Partly Cloudy
12:30 PM 51.8 °F - 50.0 °F 94% 29.74 in 4.3 mi ESE 3.5 mph - N/A   Partly Cloudy
1:00 PM 51 °F - 49 °F 91% 29.75 in 3 mi ESE 6.7 mph - -   Mist
1:00 PM 51.8 °F - 50.0 °F 94% 29.74 in 3.1 mi ESE 6.9 mph - N/A   Mostly Cloudy
1:30 PM 50.0 °F - 48.2 °F 94% 29.77 in 3.1 mi SE 3.5 mph - N/A   Mostly Cloudy
2:00 PM 51.8 °F - 50.0 °F 94% 29.77 in 3.1 mi NE 6.9 mph - N/A   Mostly Cloudy
2:30 PM 53.6 °F - 50.0 °F 88% 29.80 in 6.2 mi ENE 9.2 mph - N/A   Partly Cloudy
3:00 PM 50.0 °F - 46.4 °F 87% 29.83 in 6.2 mi NE 19.6 mph - N/A   Partly Cloudy
3:30 PM 50.0 °F - 46.4 °F 87% 29.83 in 6.2 mi NE 12.7 mph - N/A   Mostly Cloudy
4:00 PM 49 °F - 45 °F 79% 29.87 in 9 mi NE 13.4 mph - -   Partly Cloudy
4:00 PM 50.0 °F - 44.6 °F 82% 29.86 in 6.2 mi NE 12.7 mph - N/A   Mostly Cloudy
4:30 PM 48.2 °F - 44.6 °F 87% 29.86 in 6.2 mi ENE 6.9 mph - N/A   Mostly Cloudy
5:00 PM 48.2 °F - 44.6 °F 87% 29.86 in 6.2 mi NE 5.8 mph - N/A   Mostly Cloudy
5:30 PM 48.2 °F - 44.6 °F 87% 29.89 in 6.2 mi NE 4.6 mph - N/A   Mostly Cloudy
6:00 PM 48.2 °F - 44.6 °F 87% 29.89 in 6.2 mi ESE 4.6 mph - N/A   Scattered Clouds
6:30 PM 46.4 °F - 42.8 °F 87% 29.89 in 6.2 mi Variable 1.2 mph - N/A   Mostly Cloudy
7:00 PM 46.4 °F - 42.8 °F 87% 29.92 in 6.2 mi WSW 2.3 mph - N/A   Mostly Cloudy
7:30 PM 44.6 °F - 42.8 °F 93% 29.92 in 6.2 mi Variable 1.2 mph - N/A   Mostly Cloudy
8:00 PM 44.6 °F - 42.8 °F 93% 29.92 in 6.2 mi South 2.3 mph - N/A   Mostly Cloudy
8:30 PM 42.8 °F 40.1 °F 41.0 °F 93% 29.92 in 6.2 mi SW 4.6 mph - N/A   Partly Cloudy
9:00 PM 41.0 °F 39.0 °F 39.2 °F 93% 29.95 in 6.2 mi WSW 3.5 mph - N/A Fog Shallow Fog
9:30 PM 41.0 °F - 39.2 °F 93% 29.92 in 2.5 mi West 2.3 mph - N/A Fog Fog
10:00 PM 40 °F - 38 °F 92% 29.96 in 4 mi Calm Calm - - Fog Patches of Fog
10:00 PM 39.2 °F 37.0 °F 39.2 °F 100% 29.95 in 4.3 mi SSW 3.5 mph - N/A Fog Fog
10:30 PM 39.2 °F - 37.4 °F 93% 29.92 in 1.6 mi SW 2.3 mph - N/A Fog Shallow Fog
11:00 PM 37.4 °F - 35.6 °F 93% 29.92 in 0.2 mi WNW 1.2 mph - N/A Fog Fog
11:30 PM 37.4 °F 34.9 °F 37.4 °F 100% 29.92 in 0.7 mi WSW 3.5 mph - N/A Fog Patches of Fog